Regional Weather Roundup
Issued by NWS Kansas City/Pleasant Hill, MO

Home | Current Version | Previous Version | Graphics & Text | Print | Product List | Glossary Off
Versions: 1 2 3 4 5 6 7 8 9 10 11 12 13 14 15 16 17 18 19 20 21 22 23 24 25 26 27 28 29 30 31 32 33 34 35 36 37 38 39 40 41 42 43 44 45 46 47 48 49 50

000
ASUS43 KEAX 051810
RWREAX

WEATHER ROUNDUP FOR EASTERN KANSAS AND NORTHWEST MISSOURI
NATIONAL WEATHER SERVICE KANSAS CITY/PLEASANT HILL MO
1200 PM CST FRI FEB 05 2016

KSZ040-057-103>105-MOZ028-029-037-043-051900-
...KANSAS CITY METROPOLITAN AREA...

CITY           SKY/WX    TMP DP  RH WIND       PRES   REMARKS
K.C. INTL      CLOUDY    33  21  61 S8        30.38F WCI  26
6HR MIN TEMP:  21; 6HR MAX TEMP:  33;

K.C. DOWNTOWN  CLOUDY    35  20  54 SE6       30.40F WCI  30
6HR MIN TEMP:  25; 6HR MAX TEMP:  35;

LEES SUMMIT    MOSUNNY   33  21  61 VRB3      30.40F
6HR MIN TEMP:  23; 6HR MAX TEMP:  33;

OLATHE - IXD   CLOUDY    33  22  63 SE6       30.39F WCI  28
6HR MIN TEMP:  22; 6HR MAX TEMP:  34;

OLATHE - OJC   CLOUDY    33  21  61 SE5       30.39F WCI  29
6HR MIN TEMP:  23; 6HR MAX TEMP:  33;

LAWRENCE       PTSUNNY   33  22  63 SE7       30.39F WCI  27

$$

MOZ001>008-011>017-020>025-030>033-038>040-044>046-053-054-051900-
...NORTHERN AND CENTRAL MISSOURI...

CITY           SKY/WX    TMP DP  RH WIND       PRES   REMARKS
ST. JOSEPH     CLOUDY    31  23  72 S8        30.39F WCI  23
6HR MIN TEMP:  22; 6HR MAX TEMP:  32;

MOSBY          CLOUDY    32  23  69 SE5       30.42F WCI  27
WARRENSBURG    PTSUNNY   34  23  64 SE5       30.41F WCI  30
WHITEMAN AFB   CLOUDY    35  22  61 S5        30.40F WCI  30
6HR MIN TEMP:  23; 6HR MAX TEMP:  35;

CLINTON          N/A     36  27  69 SE3       30.42F
SEDALIA        MOSUNNY   35  20  54 E7        30.42F WCI  29
6HR MIN TEMP:  23; 6HR MAX TEMP:  35;

WARSAW         NOT AVBL
CHILLICOTHE      N/A     32  23  69 VRB3      30.43F
6HR MIN TEMP:  23; 6HR MAX TEMP:  32;

KIRKSVILLE     CLOUDY    30  17  58 S5        30.41S WCI  25
6HR MIN TEMP:  18; 6HR MAX TEMP:  30;


$$

MOZ041-047>049-056>058-063>065-088>090-097-051900-
...EASTERN AND SOUTHERN MISSOURI...

CITY           SKY/WX    TMP DP  RH WIND       PRES   REMARKS
ST. LOUIS INTL PTSUNNY   39  20  46 W5        30.43F
6HR MIN TEMP:  27; 6HR MAX TEMP:  39;

SPIRIT OF STL  PTSUNNY   36  21  54 VRB3      30.42F
COLUMBIA       MOSUNNY   34  19  54 CALM      30.42F
JEFFERSON CITY CLOUDY    34  20  56 CALM      30.44F
ROLLA          CLOUDY    38  21  50 W6        30.38F WCI  33
OSAGE BEACH    MOSUNNY   37  21  52 CALM      30.41F
SPRINGFIELD    CLOUDY    48  18  30 W16       30.38F
BRANSON        PTSUNNY   46  16  29 W10       30.42F
JOPLIN         MOSUNNY   48  21  34 SW14      30.39F
WEST PLAINS    MOSUNNY   47  16  29 W13G23    30.40F

$$

IAZ060-094-KSZ022-034>040-054-083-096-NEZ052-066-093-051900-
...KANSAS...SOUTHEAST NEBRASKA AND IOWA...

CITY           SKY/WX    TMP DP  RH WIND       PRES   REMARKS
TOPEKA           N/A     34  22  61 SE6       30.39F WCI  29
6HR MIN TEMP:  23; 6HR MAX TEMP:  34;

MANHATTAN      PTSUNNY   35  23  61 SW6       30.37F WCI  30
EMPORIA        SUNNY     38  24  57 S7        30.36F WCI  33
CHANUTE        SUNNY     43  24  47 VRB3      30.38F
WICHITA        PTSUNNY   47  20  34 VRB3      30.34F
OMAHA          LGT SNOW  27  24  89 S14       30.32F VSB 3/4 WCI  16
LINCOLN        LGT SNOW  28  25  88 S10       30.32F VSB 1   WCI  19
FALLS CITY     CLOUDY    31  23  72 S10       30.36F WCI  22
LAMONI         CLOUDY    29  21  72 S7        30.37F WCI  22
DES MOINES     CLOUDY    26  15  63 S6        30.39F WCI  19

$$




USA.gov is the U.S. government's official web portal to all federal, state and local government web resources and services.